HAIYANG 3A

导读

HAIYANG 3A(海洋三号A星)是中国发射的首颗新一代海洋水色观测卫星,于北京时间2023年11月16日成功进入预定轨道。该卫星配备先进的高分辨率多光谱观测载荷,可实现对全球海洋生态环境、海岸带资源的精细化监测,能为海洋环境保护、气候变化研究、海洋资源开发和防灾减灾提供核心遥感数据支撑,标志着中国海洋遥感技术迈入新的发展阶段。

基本信息
目录编号:
58349
目录名称:
HAIYANG 3A
国际标识:
2023-176A
轨道中心:
EARTH
卫星名称:
HAIYANG 3A
卫星全名:
--
卫星状态:
在轨 (已飞行984 天)
发射日期:
2023-11-16 UTC
国别 :
中国 (CN)
星等 :
--
轨道信息
数据来源 国际轨道数据
星历时间: 2026-07-27T23:11:45+0800
8小时前
查看轨道信息
半长轴: 7156.087km
偏心率: 0.0008342
轨道倾角: 98.545°
近地点辐角 263.148°
升交点赤经 286.140°
平近点角 96.876°
近地点: 771.98km
远地点: 783.92km
周期: 100.409分钟
每日圈数: 14.34133
详细信息
使用方式:
暂无
2D轨道图
3D轨道图
轨道高度分析图
轨道倾角分析图
轨道综合分析图
查看轨道综合分析图